Location: Steznica
(49.3330°N, 22.3330°E)
Time: 20:53:02
(UTC+01:00)

ISS - Visible Passes

Search period start: 30 November 2022 00:00
Search period end: 10 December 2022 00:00
Orbit: 415 x 420 km, 51.6° (Epoch: 30 November)

Date Brightness Start Highest point End Pass type
(mag) Time Alt. Az. Time Alt. Az. Time Alt. Az.
30 Nov -3.7 17:04:32 10° WNW 17:07:51 63° N 17:09:13 32° E visible
30 Nov -0.7 18:41:22 10° WNW 18:42:09 16° W 18:42:09 16° W visible
01 Dec -3.6 16:16:28 10° WNW 16:19:47 56° N 16:23:06 10° E visible
01 Dec -3.2 17:53:19 10° WNW 17:56:13 57° WSW 17:56:13 57° WSW visible
02 Dec -3.8 17:05:18 10° WNW 17:08:40 89° SSW 17:10:22 27° ESE visible
02 Dec -0.6 18:42:27 10° W 18:43:19 15° W 18:43:19 15° W visible
03 Dec -3.8 16:17:17 10° WNW 16:20:38 73° NNE 16:23:58 10° E visible
03 Dec -2.3 17:54:13 10° W 17:57:15 32° SSW 17:57:38 31° SSW visible
04 Dec -2.9 17:06:06 10° WNW 17:09:21 47° SSW 17:12:07 13° SE visible
05 Dec -3.4 16:18:03 10° WNW 16:21:23 68° SSW 16:24:43 10° ESE visible
05 Dec -0.9 17:55:38 10° W 17:57:41 15° SW 17:59:44 10° S visible
06 Dec -1.3 17:07:10 10° W 17:09:52 23° SW 17:12:34 10° SSE visible
07 Dec -1.9 16:18:56 10° W 16:22:00 33° SSW 16:25:03 10° SSE visible
08 Dec -0.1 17:09:47 10° SW 17:10:13 10° SW 17:10:38 10° SW visible
09 Dec -0.6 16:20:19 10° W 16:22:26 16° SW 16:24:33 10° S visible
